sat.trackr.live / text

‹ back to catalog

STARLINK-35202

NORAD 65647 · 2025-210AB

PAYLOAD ACTIVE UNKNOWN

§ Identity

Operator
Country
US
Launch date
2025-09-18
Launch site
AFETR
Launch vehicle
Mass (kg)
RCS (m²)

Purposes: comms

External: N2YO · Heavens-Above · Gunter

§ Orbital elements

Epoch: 2026-05-25T04:01:50.431584Z

Period
93.37 min
Inclination
53.1592°
Eccentricity
0.0000792
Mean motion
15.42190855 rev/d
Perigee alt
439.1 km
Apogee alt
440.2 km
Semi-major
6,817.8 km
B*
5.4762e-4
RAAN
309.4700°
Arg perigee
90.4667°
Mean anomaly
269.6429°
Rev number
3,947

§ Raw data

STARLINK-352021 65647U 25210AB  26145.16794481  .00023516  00000+0  54762-3 0  99992 65647  53.1592 309.4700 0000792  90.4667 269.6429 15.42190855 39479

JSON: /api/v1/satellites/65647 · /tle

For live sub-satellite position, see the globe view (requires WebGL).

§ Visibility from observer

Set your observer location to see the next 7 days of passes ≥ 10°. The values pass through the URL so the page stays shareable.

No JS? Fill the form by hand. The geolocation button needs JavaScript.